RH
32 31 30 30 28 23 19 17 28 30 28 26 24 23 22 21 21 20 19 20 15 14 16 19 20 21 25 25 26 26 27 29 24 23 21 18 20 18 22 23 24 23 23 22 24
31 31 30 28 25 22 18 18 30 30 28 25 23 22 20 20 20 19 19 16 17 16 17 20 17 18 21 24 27 29 37 27 21 21 22 20 22 20 20 20 20 20 19 23 26
29 30 29 27 24 21 17 19 29 30 28 26 23 21 19 19 18 18 18 17 18 16 16 18 18 19 21 23 25 32 37 32 25 21 23 24 23 19 22 24 17 15 16 19 25
28 28 28 25 22 20 16 20 29 29 27 26 24 22 20 19 24 20 19 18 18 16 16 17 17 17 20 22 23 29 26 27 24 22 22 22 20 21 20 17 14 16 19 20 21
26 27 26 24 21 19 16 23 29 28 26 25 24 22 21 21 19 20 20 18 17 18 17 17 18 18 21 21 21 25 23 20 20 20 21 21 22 23 18 11 15 15 17 17 19
25 24 23 21 19 17 16 29 28 27 25 24 23 22 21 22 20 20 19 18 17 19 18 18 18 19 20 22 21 21 23 23 18 17 20 23 22 22 13 15 15 16 16 16 17
23 21 19 17 16 15 20 31 28 26 24 23 22 22 21 20 20 21 20 19 18 19 19 18 20 21 19 21 21 22 26 25 20 19 20 23 22 26 12 17 17 17 18 19 17
17 16 14 14 15 17 30 29 28 26 24 23 22 21 21 20 20 20 20 20 20 20 20 19 19 19 20 22 24 24 25 29 19 19 22 20 30 23 17 17 18 18 18 19 19
17 16 15 17 19 28 31 29 27 25 24 23 23 22 20 21 20 20 20 21 20 21 20 21 20 21 24 30 30 30 28 25 23 17 20 22 26 22 20 17 19 20 20 20 19
14 17 18 21 27 32 31 28 26 24 23 24 26 25 22 21 20 20 21 22 22 21 21 23 24 33 35 33 30 26 28 24 25 18 22 28 31 28 20 20 20 20 21 20 17
15 18 20 24 28 31 29 27 26 26 25 22 22 21 19 20 20 19 20 22 22 21 25 26 32 34 30 30 26 26 26 26 24 22 25 26 30 28 25 22 22 22 21 19 17
16 18 22 26 26 28 28 24 24 30 29 24 21 22 19 20 20 20 20 20 22 27 26 28 34 30 26 27 27 24 25 28 25 23 27 30 32 27 25 24 22 23 23 20 17
18 20 24 26 28 26 25 24 24 28 29 22 21 23 23 21 20 18 19 20 22 27 28 30 22 24 25 22 23 24 25 25 26 30 27 34 27 29 22 24 24 25 26 21 18
20 24 28 29 28 26 25 24 26 26 34 27 26 25 24 21 22 20 19 19 21 25 27 29 23 21 24 23 24 27 24 26 28 32 35 32 35 28 24 24 26 28 25 20 19
25 29 30 30 34 33 35 34 28 27 27 19 25 24 23 22 21 23 22 20 24 22 22 24 22 22 23 23 24 27 26 28 29 36 40 34 40 32 26 27 26 28 25 22 20
28 31 32 31 42 40 39 32 28 32 35 29 25 26 26 24 24 24 22 21 23 24 25 26 22 21 23 23 22 25 28 35 47 48 42 33 36 32 31 29 26 28 24 22 24
30 31 32 31 34 43 40 30 39 39 20 30 28 29 27 29 26 26 28 27 28 30 32 26 27 25 23 24 27 29 30 34 26 46 37 39 39 32 23 23 26 30 24 25 28
32 32 32 33 34 34 36 40 38 27 31 26 30 31 30 29 26 30 32 33 31 28 36 33 26 29 25 24 26 30 31 32 25 36 37 34 35 25 29 28 24 22 24 28 30
33 31 32 33 43 44 33 47 40 38 27 32 28 31 32 28 26 29 34 36 32 33 33 35 29 27 26 25 24 31 35 29 42 44 47 42 32 23 29 33 29 26 27 29 30
34 31 31 33 42 43 46 50 36 31 26 27 33 31 36 32 31 33 35 29 26 32 24 27 28 29 28 25 29 29 30 35 44 38 45 45 42 36 29 33 28 28 28 29 32
37 33 40 36 40 44 61 56 40 28 25 28 32 29 31 34 34 36 30 24 27 28 24 28 26 28 28 31 34 34 35 40 41 49 45 50 42 33 34 31 28 28 32 34 37
55 61 62 52 50 63 64 48 31 26 25 28 27 28 27 30 35 32 32 24 26 26 29 28 34 37 32 28 27 29 32 38 46 41 52 52 52 26 34 30 29 31 36 39 40
58 66 75 54 68 72 57 42 32 29 27 26 27 29 27 26 26 30 26 32 28 28 31 32 38 38 26 32 29 31 33 36 42 44 54 51 45 32 36 36 34 37 41 42 42
54 82 75 69 61 57 52 45 40 32 30 28 27 31 32 33 30 26 34 34 32 31 29 29 40 31 30 25 36 38 37 33 37 53 50 50 41 34 35 39 38 44 45 42 36
56 64 64 94 81 68 50 43 47 41 38 35 36 37 36 38 35 35 39 39 38 36 35 38 42 45 42 37 44 46 45 48 48 47 50 42 47 41 42 42 44 44 38 36 38
67 68 68 60 60 66 68 62 51 43 43 43 41 40 42 39 35 35 44 43 39 44 40 50 48 51 52 49 52 64 60 58 56 54 55 54 56 41 44 45 41 38 39 42 51
56 77 59 64 74 76 75 58 56 42 39 33 41 41 46 42 31 30 32 34 36 46 51 54 63 65 64 63 62 66 55 57 63 60 56 64 52 48 47 42 40 40 43 47 50
Wind_Speed
13 12 11 10 8 7 7 8 8 6 6 5 3 3 2 4 6 7 4 1 1 2 1 2 2 2 3 1 1 1 4 2 4 3 6 3 2 6 5 11 11 12 18 18 15
15 14 11 10 8 7 7 9 9 6 6 5 4 3 2 4 7 9 4 4 0 1 1 2 1 2 1 1 1 3 3 6 5 4 5 11 7 10 6 12 16 19 21 22 19
16 14 12 10 9 8 8 11 9 7 7 6 5 4 3 3 5 7 9 6 3 2 2 1 2 1 2 2 3 3 4 5 12 18 15 6 6 10 4 7 22 18 17 14 17
15 14 12 11 10 9 9 11 10 7 7 6 5 4 3 2 4 1 8 8 4 2 2 3 2 2 2 3 2 1 9 11 12 13 5 5 7 6 12 28 25 25 20 17 19
14 14 13 12 11 10 11 12 10 7 7 7 6 4 4 3 5 2 7 5 5 3 3 4 4 1 2 2 3 5 4 7 12 17 16 15 19 10 24 21 13 12 14 15 17
14 13 12 12 11 11 12 12 10 7 7 7 6 5 5 3 3 3 7 5 6 6 6 5 4 3 4 3 3 2 9 15 15 21 8 4 4 3 12 7 13 19 21 23 21
13 13 12 11 11 11 13 12 10 8 7 7 7 6 8 11 4 4 6 6 7 7 8 8 5 4 1 4 3 5 6 8 3 2 0 2 4 6 11 14 17 13 16 18 12
12 12 11 11 11 12 12 10 9 8 7 7 7 7 8 8 9 10 10 10 8 6 5 5 5 5 3 4 4 4 3 5 3 4 1 3 9 7 6 19 16 10 15 16 15
12 11 10 11 11 12 10 9 9 8 7 7 7 6 8 8 12 11 11 10 6 7 4 4 3 1 0 3 4 5 2 3 8 6 2 2 8 5 9 13 5 10 14 19 20
11 12 11 10 11 10 9 9 8 9 8 6 8 3 12 5 7 7 9 10 7 5 4 2 1 3 3 3 3 3 3 5 5 4 3 5 11 9 17 5 4 9 13 19 23
12 11 11 11 12 10 10 7 6 4 11 9 5 8 4 8 5 7 8 9 8 3 2 2 3 5 6 6 3 3 3 6 5 4 4 5 8 13 11 10 10 8 13 18 21
13 13 13 12 11 10 9 7 4 2 6 15 21 20 13 3 4 8 9 9 6 4 2 4 6 8 2 4 4 4 4 6 6 1 1 6 9 5 4 5 7 6 11 15 17
13 14 12 11 10 10 10 8 5 3 2 7 15 18 18 18 8 9 13 6 4 4 5 6 5 4 4 2 3 4 5 3 4 6 1 6 5 5 3 5 7 8 9 12 14
14 13 13 11 7 9 8 9 7 2 3 5 4 5 10 11 4 16 16 7 2 6 6 5 4 1 2 4 6 4 3 0 3 4 2 4 3 4 2 1 4 5 8 9 11
15 14 13 12 6 9 7 8 7 4 2 1 3 5 9 13 5 2 11 9 6 4 4 5 1 2 2 5 5 6 2 1 0 2 3 1 3 6 1 4 3 3 4 7 9
16 15 14 14 9 10 9 9 9 5 5 1 3 3 4 2 2 3 3 3 2 2 1 6 1 2 5 1 2 2 2 5 4 3 1 1 3 4 4 6 3 3 3 4 5
15 17 17 14 12 11 10 11 4 3 3 3 4 3 3 4 3 5 4 3 5 3 2 1 2 1 2 2 2 4 5 4 4 3 4 1 3 7 4 4 7 10 6 4 3
15 17 17 15 12 14 13 4 3 3 5 1 3 3 5 6 3 5 4 2 5 2 2 3 3 5 2 2 4 1 5 4 3 2 5 3 5 3 4 2 13 9 3 1 0
13 16 17 18 13 15 13 2 7 6 4 7 3 3 3 3 4 3 6 4 7 9 7 4 3 1 2 1 1 2 1 2 5 2 2 4 6 2 4 5 7 3 3 4 2
13 15 16 18 16 14 3 5 5 5 0 2 6 4 5 3 5 5 6 3 3 9 2 5 2 1 1 2 5 2 4 3 3 2 4 5 5 4 5 5 3 3 4 3 2
14 9 12 17 18 10 4 7 5 7 2 3 5 3 4 4 6 5 5 3 4 3 4 4 3 1 1 5 7 2 0 4 4 4 4 2 6 6 8 7 5 4 1 5 3
11 2 15 21 5 1 4 6 4 2 1 3 2 4 5 5 6 4 6 5 6 8 6 2 4 4 7 1 2 3 6 5 4 4 1 2 6 2 8 8 5 7 6 3 3
9 5 15 24 4 2 3 4 4 2 3 3 2 4 2 4 2 5 4 1 4 4 7 6 0 1 3 4 2 3 4 4 4 3 6 5 5 2 5 3 2 7 5 1 7
8 3 4 12 3 6 4 4 5 6 5 5 2 3 2 2 3 2 2 0 2 2 3 5 3 5 6 3 4 3 4 4 5 3 4 7 6 5 7 5 2 5 1 5 14
8 5 7 4 5 5 6 5 7 5 5 7 2 7 7 5 2 4 2 0 2 4 2 4 5 4 4 6 3 6 7 8 9 7 10 5 11 6 7 5 6 2 6 13 15
7 5 6 5 7 13 6 7 8 4 7 5 5 8 7 7 8 6 6 3 5 2 4 2 2 3 3 4 3 6 9 13 14 9 11 6 14 3 4 5 3 6 10 13 10
16 8 5 6 5 5 6 8 8 6 7 11 9 5 5 11 14 7 7 4 5 7 7 5 6 3 5 3 6 9 10 9 5 5 7 7 7 5 3 1 3 7 8 10 17
Wind_Direction
227 218 216 216 222 229 241 214 202 211 218 226 242 242 233 232 214 207 201 187 86 2 55 117 107 343 324 112 113 110 66 262 259 190 255 286 313 286 263 266 255 250 254 271 277
228 221 217 219 222 231 224 218 205 214 229 229 244 248 245 245 230 221 191 183 201 334 296 309 306 285 263 307 216 108 120 224 213 208 250 298 298 297 290 275 274 270 272 266 264
221 223 215 221 223 222 223 208 214 214 228 235 242 247 262 252 248 234 212 216 236 272 301 284 303 312 200 240 214 171 204 227 261 259 279 271 266 281 243 280 288 291 309 292 259
219 220 219 219 221 220 208 211 214 225 233 240 248 259 268 256 188 281 210 205 250 264 302 292 282 229 199 208 192 275 249 250 281 286 268 255 276 261 245 274 300 302 297 282 272
216 223 221 222 219 218 204 202 215 223 237 244 258 269 269 243 247 286 181 201 241 265 277 280 299 224 250 239 307 198 256 279 283 285 278 269 260 257 273 297 306 320 310 301 283
219 224 226 224 220 211 200 198 216 219 235 249 261 272 265 240 244 244 208 248 237 283 284 271 258 264 276 242 184 266 282 287 290 288 275 231 290 216 290 325 320 336 320 297 279
219 224 223 221 216 206 197 199 215 223 227 245 262 272 267 251 224 226 237 254 266 277 285 278 261 245 210 288 279 290 322 321 258 294 66 183 305 235 302 320 330 339 349 5 309
219 219 219 215 206 195 195 203 219 232 231 241 260 273 260 256 243 245 250 257 259 268 288 283 268 256 217 292 338 0 51 358 281 333 44 123 276 268 328 335 339 358 24 24 25
217 215 205 205 193 185 199 208 228 235 239 254 257 243 266 247 246 247 243 252 251 248 265 280 272 238 117 78 3 11 278 287 317 344 272 175 273 268 314 331 356 43 44 45 48
214 214 196 194 194 190 205 225 233 241 241 249 244 257 242 240 231 225 230 238 240 233 261 242 148 71 46 75 237 270 310 266 243 293 327 281 267 292 316 280 101 68 48 43 41
209 208 194 198 206 200 208 227 225 230 228 213 221 215 299 224 222 209 201 202 216 217 201 25 62 225 223 205 218 260 234 258 254 266 322 258 295 298 325 134 115 75 50 48 44
206 203 195 200 205 210 207 212 201 157 289 247 242 250 241 226 218 212 199 183 168 201 110 6 249 236 178 208 224 239 268 273 287 285 340 353 305 315 26 106 109 84 60 48 42
204 201 198 200 207 212 216 218 214 253 266 267 234 237 230 227 227 217 197 201 169 181 194 183 229 85 136 246 222 257 228 246 244 331 47 336 334 351 349 83 94 87 69 46 39
203 198 199 196 207 211 212 205 211 190 50 269 203 210 190 187 252 227 213 202 168 213 179 225 268 254 157 230 155 277 200 281 320 40 274 40 271 298 281 101 62 84 60 56 57
200 196 198 192 182 178 176 156 153 160 316 228 147 158 161 165 137 183 195 200 187 193 123 255 132 158 178 224 173 225 66 38 268 111 42 325 83 269 340 242 213 132 72 72 66
197 195 200 197 187 174 150 144 138 49 257 176 127 161 115 168 120 135 158 157 145 181 225 230 274 199 210 150 201 76 65 55 53 80 359 223 133 281 198 209 180 165 141 128 89
198 195 201 196 196 172 156 150 60 155 317 196 196 159 127 193 192 168 159 173 184 136 264 318 197 8 182 156 55 71 52 337 349 7 227 285 56 243 299 286 167 177 184 163 106
199 198 198 194 191 183 165 63 181 226 226 150 136 99 174 156 247 183 135 209 226 123 126 167 315 175 187 214 179 146 140 156 258 268 285 319 240 262 289 179 144 144 174 189 97
196 194 198 194 183 177 172 129 207 204 211 155 101 139 223 198 176 175 189 208 212 179 178 152 276 85 70 28 65 166 147 167 102 28 24 272 293 5 48 54 105 165 266 279 264
184 185 196 193 185 176 106 230 227 223 96 122 175 160 186 207 159 176 189 211 221 193 180 203 128 321 130 111 33 130 155 67 18 237 270 289 274 222 189 156 185 214 294 304 253
169 162 181 179 182 174 175 224 254 260 261 175 202 166 203 189 180 197 214 249 171 143 159 139 125 262 100 194 181 99 173 62 125 146 195 282 271 213 164 164 197 205 261 149 89
168 113 168 168 145 189 173 195 219 238 175 244 158 196 188 167 180 219 212 222 164 157 167 173 138 193 210 92 155 175 198 151 143 227 209 169 272 176 154 158 196 201 175 152 1
166 122 173 176 160 222 269 252 234 170 225 194 225 199 161 201 223 192 204 85 143 164 163 187 103 32 348 16 10 218 194 140 113 86 194 159 260 151 167 95 208 214 165 281 335
165 125 144 201 209 149 160 225 206 223 217 199 196 143 144 223 230 239 233 123 95 140 135 127 146 173 204 199 152 203 203 189 154 163 212 223 249 224 247 280 232 175 203 336 334
190 201 174 189 225 181 170 197 184 204 204 197 202 198 174 215 219 224 180 118 54 139 87 122 211 183 243 223 209 220 223 239 204 206 216 209 249 229 265 252 166 149 347 338 331
180 169 170 183 163 180 174 209 192 205 162 230 199 203 188 191 188 206 161 185 204 82 142 45 216 155 283 294 277 268 238 240 237 234 250 249 270 210 138 114 46 342 329 323 310
205 196 180 181 143 125 204 199 202 180 218 214 204 163 179 226 225 216 203 198 178 165 175 151 140 130 253 2 335 294 249 226 199 203 184 205 227 165 152 198 295 319 321 310 320